Location: Creola (historical)
(38.1334°N, 100.5024°W)
Time: 07:40:23
(UTC+00:00)

Cosmos 1538 Rocket - Pass Details

Date: 18 October 2021
Orbit: 752 x 792 km, 74.0° (Epoch: 30 November)

Event Time Altitude Azimuth Distance (km) Brightness Sun altitude
Rises 12:07:16 0° 201° (SSW) 3,226 7.1 -9.9°
Reaches altitude 10° 12:09:37 10° 203° (SSW) 2,310 6.3 -9.5°
Maximum altitude 12:14:52 75° 289° (WNW) 809 4.0 -8.4°
Drops below altitude 10° 12:20:13 10° 15° (NNE) 2,350 6.6 -7.4°
Sets 12:22:38 0° 17° (NNE) 3,287 7.4 -6.9°
